^^
Station Historical Data
Daily Summary for January 9, 2018 Units:  English    Metric   Both
« Previous Day
Next Day »
Daily Weekly Monthly Yearly Custom
  High: Low: Average:
Temperature: TemperatureF °F 66.7 °F 80.6 °F
Dew Point: DewpointF °F 30.4 °F 36.6 °F
Humidity: Humidity% 10% 23%
Wind Speed: WindSpeedMPHmph 0.0mph 3.5mph
Wind Gust: WindSpeedGustMPHmph - -
Wind- - SSE
Pressure: PressureIn in 29.60 in -
Precipitation: 0.00 in    
Historical Graphs
 
 
Tabular Data for January 9, 2018
Time Temperature Dew Point Pressure Wind Wind Speed Wind Gust Humidity Rainfall Rate (Hourly) solar Conditions
TemperatureF °F DewpointF °F PressureIn in Calm     Humidity% HourlyPrecipIn in SolarRadiationWatts/m^2 W/m2 Conditions
00:04 72.1 °F 40.6 °F 30.22 in SE 6.0 mph 7.0 mph 32% 0.00 in 0.0 W/m2
00:09 72.3 °F 39.9 °F 30.21 in Calm   7.0 mph 31% 0.00 in 0.0 W/m2
00:14 72.3 °F 40.8 °F 30.21 in South 0.9 mph 8.0 mph 32% 0.00 in 0.0 W/m2
00:16 72.3 °F 40.8 °F 30.21 in SE 2.9 mph 5.0 mph 32% 0.00 in 0.0 W/m2
00:19 72.3 °F 40.8 °F 30.21 in SSE 2.0 mph 6.0 mph 32% 0.00 in 0.0 W/m2
00:24 72.3 °F 40.8 °F 29.74 in Calm   3.0 mph 32% 0.00 in 0.0 W/m2
00:29 72.1 °F 40.6 °F 30.21 in Calm   6.0 mph 32% 0.00 in 0.0 W/m2
00:34 72.1 °F 39.9 °F 30.20 in SSW 2.9 mph 3.0 mph 31% 0.00 in 0.0 W/m2
00:35 72.1 °F 40.6 °F 30.20 in WSW 0.9 mph 4.0 mph 32% 0.00 in 0.0 W/m2
00:39 72.0 °F 40.5 °F 30.20 in Calm   6.0 mph 32% 0.00 in 0.0 W/m2
00:40 72.0 °F 40.5 °F 30.20 in SSW 2.0 mph 5.0 mph 32% 0.00 in 0.0 W/m2
00:45 72.0 °F 40.5 °F 30.20 in South 0.9 mph 3.0 mph 32% 0.00 in 0.0 W/m2
00:46 71.8 °F 40.3 °F 30.20 in Calm   4.0 mph 32% 0.00 in 0.0 W/m2
00:50 71.8 °F 40.3 °F 29.73 in SSW 0.9 mph 3.0 mph 32% 0.00 in 0.0 W/m2
00:55 71.4 °F 40.1 °F 30.20 in SSW 2.0 mph 6.0 mph 32% 0.00 in 0.0 W/m2
01:00 71.4 °F 40.1 °F 30.20 in Calm   5.0 mph 32% 0.00 in 0.0 W/m2
01:05 71.2 °F 39.9 °F 30.20 in SSW 0.9 mph 1.0 mph 32% 0.00 in 0.0 W/m2
01:08 71.2 °F 39.0 °F 30.19 in SW 2.9 mph 5.0 mph 31% 0.00 in 0.0 W/m2
01:10 71.2 °F 39.0 °F 30.20 in SSW 2.0 mph 2.0 mph 31% 0.00 in 0.0 W/m2
01:12 71.2 °F 39.0 °F 30.20 in Calm   2.0 mph 31% 0.00 in 0.0 W/m2
01:16 71.2 °F 39.0 °F 30.20 in SW 2.9 mph 5.0 mph 31% 0.00 in 0.0 W/m2
01:21 71.2 °F 39.9 °F 30.20 in SSW 0.9 mph 4.0 mph 32% 0.00 in 0.0 W/m2
01:26 71.1 °F 38.8 °F 29.72 in SW 0.9 mph 2.0 mph 31% 0.00 in 0.0 W/m2
01:31 71.1 °F 39.7 °F 30.19 in Calm   1.0 mph 32% 0.00 in 0.0 W/m2
01:32 70.9 °F 39.6 °F 30.19 in Calm   3.0 mph 32% 0.00 in 0.0 W/m2
01:36 70.9 °F 39.6 °F 30.19 in Calm     32% 0.00 in 0.0 W/m2
01:39 70.7 °F 39.4 °F 30.19 in Calm   1.0 mph 32% 0.00 in 0.0 W/m2
01:44 70.3 °F 39.0 °F 29.72 in Calm     32% 0.00 in 0.0 W/m2
01:46 70.3 °F 39.0 °F 30.19 in Calm   1.0 mph 32% 0.00 in 0.0 W/m2
01:47 70.5 °F 39.2 °F 30.19 in Calm   2.0 mph 32% 0.00 in 0.0 W/m2
01:51 70.0 °F 38.8 °F 30.19 in Calm     32% 0.00 in 0.0 W/m2
01:55 69.8 °F 39.4 °F 30.19 in Calm     33% 0.00 in 0.0 W/m2
01:57 69.6 °F 39.2 °F 30.19 in Calm   1.0 mph 33% 0.00 in 0.0 W/m2
02:00 69.4 °F 39.0 °F 30.19 in Calm   1.0 mph 33% 0.00 in 0.0 W/m2
02:02 69.3 °F 38.8 °F 30.19 in Calm   1.0 mph 33% 0.00 in 0.0 W/m2
02:07 69.1 °F 39.6 °F 30.19 in Calm     34% 0.00 in 0.0 W/m2
02:12 68.7 °F 39.2 °F 30.19 in Calm   1.0 mph 34% 0.00 in 0.0 W/m2
02:16 68.5 °F 39.0 °F 30.19 in Calm     34% 0.00 in 0.0 W/m2
02:22 68.5 °F 39.0 °F 30.19 in Calm     34% 0.00 in 0.0 W/m2
02:24 68.2 °F 38.7 °F 30.19 in Calm   1.0 mph 34% 0.00 in 0.0 W/m2
02:25 68.2 °F 38.7 °F 30.19 in ENE 2.0 mph 3.0 mph 34% 0.00 in 0.0 W/m2
02:29 68.0 °F 37.8 °F 30.19 in Calm   3.0 mph 33% 0.00 in 0.0 W/m2
02:30 68.0 °F 37.8 °F 30.18 in WSW 2.0 mph 3.0 mph 33% 0.00 in 0.0 W/m2
02:32 68.2 °F 37.2 °F 30.18 in Calm   3.0 mph 32% 0.00 in 0.0 W/m2
02:37 68.4 °F 36.5 °F 30.18 in Calm   3.0 mph 31% 0.00 in 0.0 W/m2
02:38 68.4 °F 36.5 °F 30.18 in Calm   7.0 mph 31% 0.00 in 0.0 W/m2
02:42 68.7 °F 36.9 °F 30.18 in South 4.0 mph 7.0 mph 31% 0.00 in 0.0 W/m2
02:45 69.1 °F 37.2 °F 30.17 in SSW 0.9 mph 5.0 mph 31% 0.00 in 0.0 W/m2
02:50 69.6 °F 36.9 °F 30.17 in East 8.1 mph 8.1 mph 30% 0.00 in 0.0 W/m2
02:51 69.6 °F 36.9 °F 30.17 in ESE 2.0 mph 8.0 mph 30% 0.00 in 0.0 W/m2
02:56 70.2 °F 37.2 °F 30.17 in Calm   5.0 mph 30% 0.00 in 0.0 W/m2
03:01 70.2 °F 37.2 °F 30.17 in South 2.9 mph 4.0 mph 30% 0.00 in 0.0 W/m2
03:06 70.3 °F 36.5 °F 30.17 in South 2.0 mph 6.0 mph 29% 0.00 in 0.0 W/m2
03:09 70.3 °F 37.4 °F 30.17 in ENE 2.9 mph 10.0 mph 30% 0.00 in 0.0 W/m2
03:13 70.3 °F 37.4 °F 30.17 in Calm   13.0 mph 30% 0.00 in 0.0 W/m2
03:14 70.3 °F 36.5 °F 30.17 in Calm   9.0 mph 29% 0.00 in 0.0 W/m2
03:16 70.3 °F 36.5 °F 30.17 in SSE 2.0 mph 7.0 mph 29% 0.00 in 0.0 W/m2
03:17 70.3 °F 36.5 °F 30.16 in SE 0.9 mph 7.0 mph 29% 0.00 in 0.0 W/m2
03:19 70.3 °F 37.4 °F 29.70 in South 0.9 mph 4.0 mph 30% 0.00 in 0.0 W/m2
03:21 70.2 °F 36.5 °F 30.17 in SSW 2.9 mph 8.0 mph 29% 0.00 in 0.0 W/m2
03:23 70.2 °F 36.5 °F 30.17 in SSW 2.0 mph 10.0 mph 29% 0.00 in 0.0 W/m2
03:24 70.2 °F 36.5 °F 30.17 in East 2.9 mph 8.0 mph 29% 0.00 in 0.0 W/m2
03:28 70.3 °F 36.5 °F 30.17 in South 6.0 mph 11.0 mph 29% 0.00 in 0.0 W/m2
03:29 70.3 °F 36.5 °F 30.17 in SE 2.0 mph 11.0 mph 29% 0.00 in 0.0 W/m2
03:34 70.3 °F 36.5 °F 30.17 in South 4.0 mph 12.0 mph 29% 0.00 in 0.0 W/m2
03:35 70.3 °F 36.5 °F 30.17 in ESE 4.0 mph 12.0 mph 29% 0.00 in 0.0 W/m2
03:38 70.5 °F 36.7 °F 29.70 in SE 4.0 mph 12.0 mph 29% 0.00 in 0.0 W/m2
03:39 70.3 °F 36.5 °F 30.17 in SE 4.0 mph 12.0 mph 29% 0.00 in 0.0 W/m2
03:45 70.5 °F 36.7 °F 30.16 in ESE 4.9 mph 8.0 mph 29% 0.00 in 0.0 W/m2
03:46 70.5 °F 36.7 °F 30.17 in SSE 8.9 mph 12.0 mph 29% 0.00 in 0.0 W/m2
03:51 70.3 °F 36.5 °F 30.16 in South 10.1 mph 11.0 mph 29% 0.00 in 0.0 W/m2
03:52 70.3 °F 36.5 °F 30.16 in SE 6.0 mph 12.0 mph 29% 0.00 in 0.0 W/m2
03:54 70.3 °F 36.5 °F 30.16 in South 2.9 mph 13.0 mph 29% 0.00 in 0.0 W/m2
03:55 70.3 °F 36.5 °F 30.16 in South 6.9 mph 12.0 mph 29% 0.00 in 0.0 W/m2
04:00 70.3 °F 37.4 °F 29.69 in ESE 6.0 mph 15.0 mph 30% 0.00 in 0.0 W/m2
04:01 70.3 °F 37.4 °F 30.16 in SSE 4.9 mph 15.0 mph 30% 0.00 in 0.0 W/m2
04:06 70.3 °F 37.4 °F 30.16 in SE 4.0 mph 14.0 mph 30% 0.00 in 0.0 W/m2
04:09 70.3 °F 37.4 °F 30.16 in ESE 8.9 mph 11.0 mph 30% 0.00 in 0.0 W/m2
04:14 70.2 °F 37.2 °F 30.16 in SSE 2.9 mph 14.0 mph 30% 0.00 in 0.0 W/m2
04:17 70.2 °F 38.1 °F 30.16 in ESE 10.1 mph 14.0 mph 31% 0.00 in 0.0 W/m2
04:24 70.2 °F 37.2 °F 30.16 in SE 8.1 mph 16.0 mph 30% 0.00 in 0.0 W/m2
04:26 70.0 °F 37.9 °F 30.16 in ENE 2.0 mph 10.0 mph 31% 0.00 in 0.0 W/m2
04:27 70.0 °F 37.9 °F 29.69 in SE 10.1 mph 13.0 mph 31% 0.00 in 0.0 W/m2
04:28 70.0 °F 37.9 °F 30.16 in SSE 6.9 mph 14.0 mph 31% 0.00 in 0.0 W/m2
04:29 70.0 °F 37.9 °F 29.69 in SSE 8.9 mph 14.0 mph 31% 0.00 in 0.0 W/m2
04:30 70.0 °F 37.9 °F 30.16 in SSE 2.0 mph 12.0 mph 31% 0.00 in 0.0 W/m2
04:32 69.8 °F 37.8 °F 30.16 in South 2.0 mph 9.0 mph 31% 0.00 in 0.0 W/m2
04:35 69.6 °F 37.6 °F 30.16 in SSE 8.1 mph 17.0 mph 31% 0.00 in 0.0 W/m2
04:37 69.6 °F 37.6 °F 30.16 in SW 4.9 mph 13.0 mph 31% 0.00 in 0.0 W/m2
04:42 69.6 °F 38.5 °F 30.16 in South 8.1 mph 11.0 mph 32% 0.00 in 0.0 W/m2
04:43 69.4 °F 38.3 °F 30.16 in SSE 8.1 mph 11.0 mph 32% 0.00 in 0.0 W/m2
04:45 69.4 °F 38.3 °F 30.16 in SSW 2.0 mph 14.0 mph 32% 0.00 in 0.0 W/m2
04:46 69.4 °F 38.3 °F 30.16 in South 4.9 mph 14.0 mph 32% 0.00 in 0.0 W/m2
04:55 69.3 °F 38.1 °F 30.17 in SSW 8.1 mph 8.1 mph 32% 0.00 in 0.0 W/m2
04:56 69.1 °F 37.9 °F 30.17 in South 2.9 mph 12.0 mph 32% 0.00 in 0.0 W/m2
04:58 69.1 °F 38.8 °F 29.70 in SE 0.9 mph 12.0 mph 33% 0.00 in 0.0 W/m2
04:59 69.1 °F 38.8 °F 29.70 in SSE 8.1 mph 16.0 mph 33% 0.00 in 0.0 W/m2
05:00 69.1 °F 37.9 °F 29.69 in South 11.0 mph 11.0 mph 32% 0.00 in 0.0 W/m2
05:01 68.9 °F 38.7 °F 30.17 in South 2.9 mph 14.0 mph 33% 0.00 in 0.0 W/m2
05:02 68.9 °F 38.7 °F 30.17 in SSE 6.9 mph 14.0 mph 33% 0.00 in 0.0 W/m2
05:03 68.9 °F 38.7 °F 30.17 in SSE 6.9 mph 14.0 mph 33% 0.00 in 0.0 W/m2
05:08 68.7 °F 38.5 °F 30.17 in SSE 4.9 mph 12.0 mph 33% 0.00 in 0.0 W/m2
05:10 68.7 °F 38.5 °F 30.17 in South 0.9 mph 14.0 mph 33% 0.00 in 0.0 W/m2
05:11 68.7 °F 38.5 °F 30.17 in SW 6.0 mph 8.0 mph 33% 0.00 in 0.0 W/m2
05:15 68.5 °F 38.3 °F 30.17 in ESE 8.1 mph 17.0 mph 33% 0.00 in 0.0 W/m2
05:16 68.5 °F 38.3 °F 30.17 in SSE 4.0 mph 17.0 mph 33% 0.00 in 0.0 W/m2
05:23 68.4 °F 38.8 °F 30.17 in SSE 12.1 mph 18.0 mph 34% 0.00 in 0.0 W/m2
05:26 68.4 °F 38.8 °F 30.17 in South 2.9 mph 9.0 mph 34% 0.00 in 0.0 W/m2
05:28 68.4 °F 38.8 °F 30.17 in SE 6.0 mph 18.0 mph 34% 0.00 in 0.0 W/m2
05:31 68.2 °F 38.7 °F 30.17 in South 6.0 mph 15.0 mph 34% 0.00 in 0.0 W/m2
05:32 68.2 °F 38.7 °F 30.17 in SSE 4.9 mph 8.0 mph 34% 0.00 in 0.0 W/m2
05:33 68.2 °F 38.7 °F 30.17 in SE 6.9 mph 18.0 mph 34% 0.00 in 0.0 W/m2
05:34 68.2 °F 38.7 °F 30.17 in SSE 6.0 mph 18.0 mph 34% 0.00 in 0.0 W/m2
05:35 68.2 °F 38.7 °F 30.17 in SSE 8.9 mph 14.0 mph 34% 0.00 in 0.0 W/m2
05:36 68.2 °F 38.7 °F 30.17 in East 4.9 mph 17.0 mph 34% 0.00 in 0.0 W/m2
05:39 68.2 °F 38.7 °F 30.17 in SE 4.0 mph 13.0 mph 34% 0.00 in 0.0 W/m2
05:40 68.2 °F 38.7 °F 30.18 in SSE 6.9 mph 11.0 mph 34% 0.00 in 0.0 W/m2
05:46 68.0 °F 38.7 °F 30.17 in SE 4.9 mph 18.0 mph 34% 0.00 in 0.0 W/m2
05:50 67.8 °F 38.5 °F 30.17 in SSE 13.0 mph 21.0 mph 34% 0.00 in 0.0 W/m2
05:51 67.8 °F 38.5 °F 30.17 in SSE 4.9 mph 15.0 mph 34% 0.00 in 0.0 W/m2
05:52 67.8 °F 38.5 °F 30.17 in SE 8.9 mph 9.0 mph 34% 0.00 in 0.0 W/m2
05:53 67.8 °F 38.5 °F 30.18 in SE 17.0 mph 17.0 mph 34% 0.00 in 0.0 W/m2
05:55 67.8 °F 38.5 °F 30.17 in South 2.9 mph 13.0 mph 34% 0.00 in 0.0 W/m2
05:56 67.8 °F 38.5 °F 30.17 in SSE 10.1 mph 14.0 mph 34% 0.00 in 0.0 W/m2
05:58 67.8 °F 38.5 °F 30.17 in SSE 10.1 mph 14.0 mph 34% 0.00 in 0.0 W/m2
05:59 67.6 °F 38.3 °F 30.17 in SSW 4.0 mph 11.0 mph 34% 0.00 in 0.0 W/m2
06:01 67.6 °F 38.3 °F 30.17 in SW 6.0 mph 15.0 mph 34% 0.00 in 0.0 W/m2
06:02 67.6 °F 38.3 °F 30.17 in South 4.0 mph 15.0 mph 34% 0.00 in 0.0 W/m2
06:09 67.5 °F 38.1 °F 29.70 in SSE 6.0 mph 12.0 mph 34% 0.00 in 0.0 W/m2
06:10 67.5 °F 38.1 °F 30.18 in SE 8.1 mph 16.0 mph 34% 0.00 in 0.0 W/m2
06:12 67.6 °F 38.3 °F 30.18 in SE 2.9 mph 12.0 mph 34% 0.00 in 0.0 W/m2
06:13 67.5 °F 38.1 °F 30.18 in ESE 8.9 mph 9.0 mph 34% 0.00 in 0.0 W/m2
06:14 67.5 °F 38.1 °F 30.18 in SSE 0.9 mph 12.0 mph 34% 0.00 in 0.0 W/m2
06:19 67.5 °F 38.8 °F 30.18 in South 10.1 mph 13.0 mph 35% 0.00 in 5.0 W/m2
06:20 67.3 °F 38.7 °F 30.18 in SSW 2.0 mph 11.0 mph 35% 0.00 in 5.0 W/m2
06:22 67.3 °F 37.9 °F 30.18 in South 13.0 mph 17.0 mph 34% 0.00 in 5.0 W/m2
06:24 67.3 °F 38.7 °F 30.19 in South 4.9 mph 13.0 mph 35% 0.00 in 7.0 W/m2
06:29 67.3 °F 38.7 °F 30.18 in SSE 4.0 mph 12.0 mph 35% 0.00 in 9.0 W/m2
06:32 67.1 °F 38.5 °F 30.18 in SSE 8.1 mph 15.0 mph 35% 0.00 in 9.0 W/m2
06:35 67.1 °F 38.5 °F 30.19 in West 4.0 mph 10.0 mph 35% 0.00 in 11.0 W/m2
06:36 66.9 °F 38.3 °F 30.18 in SSW 8.1 mph 14.0 mph 35% 0.00 in 11.0 W/m2
06:37 66.9 °F 38.3 °F 30.18 in Calm   14.0 mph 35% 0.00 in 11.0 W/m2
06:38 66.9 °F 38.3 °F 30.19 in WSW 2.0 mph 10.0 mph 35% 0.00 in 11.0 W/m2
06:40 66.9 °F 38.3 °F 30.18 in SSE 4.9 mph 8.0 mph 35% 0.00 in 12.0 W/m2
06:41 66.9 °F 38.3 °F 30.18 in South 2.9 mph 7.0 mph 35% 0.00 in 12.0 W/m2
06:43 66.9 °F 38.3 °F 29.71 in SSW 4.0 mph 11.0 mph 35% 0.00 in 12.0 W/m2
06:44 66.9 °F 38.3 °F 30.19 in SE 6.9 mph 9.0 mph 35% 0.00 in 14.0 W/m2
06:45 66.9 °F 38.3 °F 30.18 in SSW 2.9 mph 9.0 mph 35% 0.00 in 14.0 W/m2
06:47 66.9 °F 38.3 °F 30.19 in South 4.0 mph 13.0 mph 35% 0.00 in 14.0 W/m2
06:49 66.9 °F 38.3 °F 30.19 in ESE 10.1 mph 10.1 mph 35% 0.00 in 14.0 W/m2
06:50 66.9 °F 38.3 °F 30.19 in ESE 4.0 mph 10.0 mph 35% 0.00 in 14.0 W/m2
06:53 66.9 °F 38.3 °F 30.19 in East 4.9 mph 12.0 mph 35% 0.00 in 16.0 W/m2
06:55 66.7 °F 39.0 °F 30.19 in SW 6.0 mph 16.0 mph 36% 0.00 in 16.0 W/m2
06:58 66.7 °F 39.0 °F 30.19 in South 8.9 mph 10.0 mph 36% 0.00 in 18.0 W/m2
06:59 66.7 °F 38.3 °F 30.19 in SE 4.0 mph 12.0 mph 35% 0.00 in 18.0 W/m2
07:03 66.9 °F 39.0 °F 30.19 in SSW 2.0 mph 13.0 mph 36% 0.00 in 19.0 W/m2
07:06 66.9 °F 39.0 °F 30.19 in SE 0.9 mph 9.0 mph 36% 0.00 in 19.0 W/m2
07:12 66.9 °F 38.3 °F 30.19 in South 4.0 mph 8.0 mph 35% 0.00 in 21.0 W/m2
07:17 67.3 °F 38.7 °F 30.19 in SE 0.9 mph 8.0 mph 35% 0.00 in 21.0 W/m2
07:22 67.5 °F 38.8 °F 30.19 in SSE 4.9 mph 10.0 mph 35% 0.00 in 23.0 W/m2
07:23 67.3 °F 38.7 °F 30.19 in South 4.0 mph 12.0 mph 35% 0.00 in 23.0 W/m2
07:24 67.6 °F 39.0 °F 30.19 in WSW 0.9 mph 10.0 mph 35% 0.00 in 23.0 W/m2
07:27 67.8 °F 39.2 °F 30.19 in SE 6.9 mph 13.0 mph 35% 0.00 in 25.0 W/m2
07:28 67.8 °F 39.2 °F 30.19 in SE 8.1 mph 10.0 mph 35% 0.00 in 25.0 W/m2
07:29 68.2 °F 38.7 °F 30.19 in South 2.0 mph 14.0 mph 34% 0.00 in 25.0 W/m2
07:34 68.4 °F 38.8 °F 29.72 in SSE 12.1 mph 14.0 mph 34% 0.00 in 25.0 W/m2
07:38 68.5 °F 39.0 °F 30.19 in SE 2.0 mph 11.0 mph 34% 0.00 in 26.0 W/m2
07:45 69.1 °F 39.6 °F 30.19 in SE 2.0 mph 8.0 mph 34% 0.00 in 74.0 W/m2
07:48 69.1 °F 39.6 °F 30.20 in SE 6.0 mph 9.0 mph 34% 0.00 in 98.0 W/m2
07:49 68.9 °F 39.4 °F 30.19 in SE 2.9 mph 7.0 mph 34% 0.00 in 35.0 W/m2
07:54 69.3 °F 39.7 °F 30.20 in South 4.0 mph 10.0 mph 34% 0.00 in 151.0 W/m2
07:57 69.8 °F 38.7 °F 30.20 in South 4.9 mph 11.0 mph 32% 0.00 in 341.0 W/m2
07:59 70.0 °F 38.8 °F 30.20 in SSE 6.0 mph 12.0 mph 32% 0.00 in 371.0 W/m2
08:00 70.2 °F 38.8 °F 30.20 in SE 4.9 mph 8.0 mph 32% 0.00 in 374.0 W/m2
08:02 70.3 °F 39.0 °F 30.20 in WSW 4.0 mph 14.0 mph 32% 0.00 in 381.0 W/m2
08:03 70.5 °F 39.2 °F 30.20 in ESE 6.9 mph 10.0 mph 32% 0.00 in 388.0 W/m2
08:04 70.5 °F 39.2 °F 30.20 in SSE 2.9 mph 10.0 mph 32% 0.00 in 390.0 W/m2
08:06 70.9 °F 39.6 °F 30.20 in ESE 2.9 mph 9.0 mph 32% 0.00 in 397.0 W/m2
08:08 71.1 °F 38.8 °F 30.20 in SSE 8.1 mph 14.0 mph 31% 0.00 in 410.0 W/m2
08:11 71.2 °F 39.0 °F 30.20 in SSE 12.1 mph 12.1 mph 31% 0.00 in 418.0 W/m2
08:13 71.4 °F 39.2 °F 30.20 in SSE 8.1 mph 14.0 mph 31% 0.00 in 429.0 W/m2
08:19 72.0 °F 38.8 °F 30.20 in SE 6.0 mph 18.0 mph 30% 0.00 in 454.0 W/m2
08:20 72.0 °F 38.8 °F 30.20 in SE 10.1 mph 18.0 mph 30% 0.00 in 455.0 W/m2
08:22 72.0 °F 38.8 °F 30.20 in South 8.9 mph 12.0 mph 30% 0.00 in 459.0 W/m2
08:23 72.0 °F 38.8 °F 30.20 in SE 2.0 mph 12.0 mph 30% 0.00 in 464.0 W/m2
08:24 72.1 °F 39.0 °F 30.20 in SSW 2.9 mph 10.0 mph 30% 0.00 in 468.0 W/m2
08:25 72.1 °F 39.0 °F 30.20 in ESE 2.0 mph 6.0 mph 30% 0.00 in 468.0 W/m2
08:26 72.1 °F 39.0 °F 30.21 in South 8.9 mph 10.0 mph 30% 0.00 in 475.0 W/m2
08:28 72.3 °F 39.2 °F 30.20 in SE 2.0 mph 14.0 mph 30% 0.00 in 483.0 W/m2
08:30 72.5 °F 39.4 °F 30.21 in ESE 8.1 mph 13.0 mph 30% 0.00 in 494.0 W/m2
08:32 72.7 °F 38.7 °F 30.21 in ESE 8.1 mph 13.0 mph 29% 0.00 in 501.0 W/m2
08:34 72.7 °F 38.7 °F 30.21 in SE 6.9 mph 11.0 mph 29% 0.00 in 508.0 W/m2
08:35 72.9 °F 38.7 °F 30.21 in ESE 8.1 mph 11.0 mph 29% 0.00 in 512.0 W/m2
08:37 72.9 °F 38.7 °F 29.74 in SE 11.0 mph 17.0 mph 29% 0.00 in 522.0 W/m2
08:40 73.0 °F 38.8 °F 30.21 in SE 6.0 mph 18.0 mph 29% 0.00 in 533.0 W/m2
08:42 73.0 °F 38.8 °F 30.21 in SE 10.1 mph 11.0 mph 29% 0.00 in 538.0 W/m2
08:43 73.0 °F 38.8 °F 30.22 in SE 6.0 mph 16.0 mph 29% 0.00 in 541.0 W/m2
08:44 73.0 °F 38.8 °F 30.21 in SSW 6.9 mph 16.0 mph 29% 0.00 in 545.0 W/m2
08:45 73.0 °F 38.8 °F 29.74 in East 2.9 mph 11.0 mph 29% 0.00 in 552.0 W/m2
08:46 73.2 °F 39.0 °F 30.21 in South 6.9 mph 19.0 mph 29% 0.00 in 554.0 W/m2
08:50 73.6 °F 38.5 °F 29.74 in ESE 6.0 mph 14.0 mph 28% 0.00 in 568.0 W/m2
08:52 73.8 °F 38.7 °F 30.21 in SE 14.1 mph 14.1 mph 28% 0.00 in 578.0 W/m2
08:56 73.9 °F 38.8 °F 30.21 in ESE 8.1 mph 10.0 mph 28% 0.00 in 594.0 W/m2
08:57 73.9 °F 37.8 °F 30.21 in SSE 6.0 mph 11.0 mph 27% 0.00 in 596.0 W/m2
08:59 74.1 °F 39.0 °F 30.21 in SSE 8.9 mph 9.0 mph 28% 0.00 in 603.0 W/m2
09:02 74.5 °F 39.2 °F 30.21 in SE 8.9 mph 9.0 mph 28% 0.00 in 615.0 W/m2
09:04 74.7 °F 38.5 °F 30.21 in SSE 8.9 mph 11.0 mph 27% 0.00 in 621.0 W/m2
09:06 75.0 °F 38.8 °F 30.21 in ESE 6.0 mph 12.0 mph 27% 0.00 in 629.0 W/m2
09:11 75.4 °F 38.1 °F 30.21 in SE 10.1 mph 12.0 mph 26% 0.00 in 647.0 W/m2
09:15 75.4 °F 38.1 °F 30.21 in South 6.0 mph 12.0 mph 26% 0.00 in 642.0 W/m2
09:17 75.9 °F 38.7 °F 30.21 in SSE 4.0 mph 12.0 mph 26% 0.00 in 664.0 W/m2
09:20 76.3 °F 38.8 °F 30.21 in ESE 2.9 mph 9.0 mph 26% 0.00 in 675.0 W/m2
09:21 75.7 °F 38.5 °F 30.21 in ESE 4.0 mph 8.0 mph 26% 0.00 in 661.0 W/m2
09:23 76.5 °F 37.9 °F 30.21 in South 11.0 mph 12.0 mph 25% 0.00 in 689.0 W/m2
09:25 76.6 °F 38.1 °F 30.21 in ESE 11.0 mph 13.0 mph 25% 0.00 in 693.0 W/m2
09:26 76.6 °F 38.1 °F 30.21 in SSE 4.0 mph 13.0 mph 25% 0.00 in 696.0 W/m2
09:28 76.6 °F 38.1 °F 30.21 in SE 6.0 mph 7.0 mph 25% 0.00 in 705.0 W/m2
09:30 76.6 °F 38.1 °F 29.74 in SE 8.1 mph 15.0 mph 25% 0.00 in 708.0 W/m2
09:32 76.8 °F 38.3 °F 30.21 in South 2.9 mph 11.0 mph 25% 0.00 in 717.0 W/m2
09:35 77.2 °F 38.7 °F 30.21 in South 4.9 mph 10.0 mph 25% 0.00 in 726.0 W/m2
09:39 77.5 °F 39.0 °F 30.21 in SE 6.0 mph 10.0 mph 25% 0.00 in 740.0 W/m2
09:40 77.5 °F 39.0 °F 30.21 in SE 4.9 mph 10.0 mph 25% 0.00 in 744.0 W/m2
09:41 77.2 °F 38.7 °F 30.21 in SE 4.0 mph 10.0 mph 25% 0.00 in 731.0 W/m2
09:43 77.7 °F 39.0 °F 30.21 in Calm   8.0 mph 25% 0.00 in 752.0 W/m2
09:46 78.1 °F 39.4 °F 30.21 in SSE 2.9 mph 8.0 mph 25% 0.00 in 761.0 W/m2
09:50 78.6 °F 38.8 °F 30.21 in South 4.0 mph 11.0 mph 24% 0.00 in 777.0 W/m2
09:52 78.8 °F 39.0 °F 30.21 in SE 4.0 mph 10.0 mph 24% 0.00 in 780.0 W/m2
09:55 79.0 °F 39.2 °F 30.21 in SE 2.9 mph 11.0 mph 24% 0.00 in 795.0 W/m2
09:56 79.2 °F 39.2 °F 30.21 in ESE 6.9 mph 11.0 mph 24% 0.00 in 793.0 W/m2
09:58 79.2 °F 39.2 °F 30.21 in South 4.0 mph 10.0 mph 24% 0.00 in 800.0 W/m2
10:02 79.3 °F 38.3 °F 30.22 in South 6.0 mph 14.0 mph 23% 0.00 in 812.0 W/m2
10:04 79.5 °F 38.5 °F 30.21 in ESE 4.0 mph 8.0 mph 23% 0.00 in 821.0 W/m2
10:05 79.5 °F 38.5 °F 30.21 in SE 4.0 mph 8.0 mph 23% 0.00 in 823.0 W/m2
10:06 79.5 °F 39.6 °F 30.22 in SE 12.1 mph 12.1 mph 24% 0.00 in 826.0 W/m2
10:10 79.7 °F 38.7 °F 30.21 in ESE 4.9 mph 15.0 mph 23% 0.00 in 835.0 W/m2
10:11 79.9 °F 38.8 °F 30.21 in SSE 2.0 mph 11.0 mph 23% 0.00 in 837.0 W/m2
10:12 79.9 °F 38.8 °F 30.21 in SE 6.9 mph 8.0 mph 23% 0.00 in 837.0 W/m2
10:15 80.1 °F 38.8 °F 30.21 in SSE 4.0 mph 8.0 mph 23% 0.00 in 847.0 W/m2
10:19 80.6 °F 39.4 °F 29.74 in South 4.9 mph 8.0 mph 23% 0.00 in 860.0 W/m2
10:23 81.0 °F 38.5 °F 30.21 in South 6.9 mph 10.0 mph 22% 0.00 in 868.0 W/m2
10:24 81.1 °F 38.7 °F 30.21 in SE 4.9 mph 12.0 mph 22% 0.00 in 874.0 W/m2
10:26 81.3 °F 38.8 °F 30.21 in SE 4.0 mph 8.0 mph 22% 0.00 in 879.0 W/m2
10:27 81.3 °F 38.8 °F 30.21 in ESE 6.0 mph 7.0 mph 22% 0.00 in 881.0 W/m2
10:31 81.7 °F 39.2 °F 30.21 in SE 11.0 mph 14.0 mph 22% 0.00 in 893.0 W/m2
10:34 81.5 °F 39.0 °F 30.21 in SSE 2.9 mph 12.0 mph 22% 0.00 in 900.0 W/m2
10:35 81.7 °F 39.2 °F 30.20 in ESE 6.0 mph 12.0 mph 22% 0.00 in 900.0 W/m2
10:40 82.0 °F 38.3 °F 29.74 in East 0.9 mph 8.0 mph 21% 0.00 in 912.0 W/m2
10:42 82.2 °F 38.5 °F 30.21 in NNE 2.9 mph 6.0 mph 21% 0.00 in 918.0 W/m2
10:45 82.6 °F 37.4 °F 30.21 in SE 4.0 mph 9.0 mph 20% 0.00 in 928.0 W/m2
10:50 82.9 °F 39.0 °F 30.21 in South 8.9 mph 11.0 mph 21% 0.00 in 942.0 W/m2
10:51 83.1 °F 37.9 °F 30.21 in SE 8.9 mph 11.0 mph 20% 0.00 in 940.0 W/m2
10:52 82.9 °F 39.0 °F 30.21 in SE 2.9 mph 11.0 mph 21% 0.00 in 942.0 W/m2
10:53 82.9 °F 37.8 °F 30.20 in SSE 2.0 mph 8.0 mph 20% 0.00 in 946.0 W/m2
10:56 82.9 °F 39.0 °F 30.20 in ESE 2.9 mph 12.0 mph 21% 0.00 in 949.0 W/m2
10:57 83.1 °F 39.2 °F 30.20 in ESE 6.9 mph 12.0 mph 21% 0.00 in 954.0 W/m2
10:58 83.1 °F 37.9 °F 30.20 in ESE 10.1 mph 12.0 mph 20% 0.00 in 954.0 W/m2
10:59 83.1 °F 39.2 °F 30.20 in South 4.9 mph 12.0 mph 21% 0.00 in 956.0 W/m2
11:02 83.5 °F 38.1 °F 30.20 in East 6.9 mph 11.0 mph 20% 0.00 in 960.0 W/m2
11:05 83.7 °F 38.3 °F 29.73 in ENE 2.0 mph 12.0 mph 20% 0.00 in 969.0 W/m2
11:12 84.4 °F 40.1 °F 30.20 in Calm   12.0 mph 21% 0.00 in 983.0 W/m2
11:13 84.6 °F 39.0 °F 30.20 in SE 6.0 mph 8.0 mph 20% 0.00 in 986.0 W/m2
11:15 84.7 °F 39.2 °F 30.20 in East 2.0 mph 13.0 mph 20% 0.00 in 991.0 W/m2
11:17 84.7 °F 37.9 °F 30.20 in SSE 8.9 mph 11.0 mph 19% 0.00 in 990.0 W/m2
11:20 84.7 °F 39.2 °F 30.20 in East 8.9 mph 10.0 mph 20% 0.00 in 998.0 W/m2
11:26 85.1 °F 38.1 °F 30.20 in NNE 4.0 mph 7.0 mph 19% 0.00 in 1011.0 W/m2
11:27 85.3 °F 38.3 °F 30.19 in ESE 6.0 mph 9.0 mph 19% 0.00 in 1009.0 W/m2
11:30 85.3 °F 38.3 °F 30.20 in East 2.9 mph 9.0 mph 19% 0.00 in 1018.0 W/m2
11:31 85.5 °F 39.7 °F 30.19 in NE 4.9 mph 9.0 mph 20% 0.00 in 1018.0 W/m2
11:32 85.5 °F 38.5 °F 30.20 in NE 4.9 mph 10.0 mph 19% 0.00 in 1016.0 W/m2
11:36 85.6 °F 38.7 °F 30.20 in East 4.9 mph 9.0 mph 19% 0.00 in 1025.0 W/m2
11:37 85.6 °F 38.7 °F 30.20 in ENE 4.0 mph 9.0 mph 19% 0.00 in 1023.0 W/m2
11:38 85.8 °F 38.8 °F 30.20 in Calm   9.0 mph 19% 0.00 in 1025.0 W/m2
11:41 86.2 °F 39.0 °F 30.20 in East 2.9 mph 9.0 mph 19% 0.00 in 1028.0 W/m2
11:43 86.4 °F 39.2 °F 30.19 in NE 4.0 mph 8.0 mph 19% 0.00 in 1032.0 W/m2
11:45 86.4 °F 37.9 °F 30.19 in NE 4.9 mph 10.0 mph 18% 0.00 in 1035.0 W/m2
11:46 86.5 °F 37.9 °F 30.20 in North 4.9 mph 7.0 mph 18% 0.00 in 1035.0 W/m2
11:49 86.5 °F 36.5 °F 30.19 in NE 0.9 mph 7.0 mph 17% 0.00 in 1037.0 W/m2
11:59 87.4 °F 38.7 °F 29.72 in ESE 0.9 mph 9.0 mph 18% 0.00 in 1049.0 W/m2
12:00 87.4 °F 38.7 °F 30.19 in NNE 2.0 mph 7.0 mph 18% 0.00 in 1048.0 W/m2
12:03 87.6 °F 38.8 °F 30.19 in Calm   6.0 mph 18% 0.00 in 1053.0 W/m2
12:05 88.0 °F 37.8 °F 30.19 in SSE 4.0 mph 14.0 mph 17% 0.00 in 1056.0 W/m2
12:14 88.2 °F 39.4 °F 30.19 in SSE 4.9 mph 6.0 mph 18% 0.00 in 1056.0 W/m2
12:16 88.2 °F 37.9 °F 30.19 in SSE 2.0 mph 9.0 mph 17% 0.00 in 1063.0 W/m2
12:17 88.2 °F 37.9 °F 30.18 in East 4.0 mph 6.0 mph 17% 0.00 in 1063.0 W/m2
12:18 88.2 °F 37.9 °F 30.19 in NNW 2.9 mph 8.0 mph 17% 0.00 in 1063.0 W/m2
12:19 88.3 °F 37.9 °F 30.18 in NNW 2.0 mph 8.0 mph 17% 0.00 in 1065.0 W/m2
12:21 88.5 °F 36.7 °F 30.18 in East 2.0 mph 6.0 mph 16% 0.00 in 1065.0 W/m2
12:26 88.9 °F 36.9 °F 30.18 in ENE 4.0 mph 5.0 mph 16% 0.00 in 1069.0 W/m2
12:30 88.9 °F 38.5 °F 30.18 in SE 6.0 mph 9.0 mph 17% 0.00 in 1069.0 W/m2
12:34 88.9 °F 38.5 °F 30.18 in Calm   2.0 mph 17% 0.00 in 1074.0 W/m2
12:35 88.9 °F 38.5 °F 30.18 in Calm   2.0 mph 17% 0.00 in 1074.0 W/m2
12:36 88.9 °F 38.5 °F 30.18 in SSW 2.9 mph 3.0 mph 17% 0.00 in 1074.0 W/m2
12:39 88.7 °F 38.3 °F 30.17 in NW 2.9 mph 3.0 mph 17% 0.00 in 1074.0 W/m2
12:40 88.7 °F 38.3 °F 30.18 in NW 2.0 mph 4.0 mph 17% 0.00 in 1072.0 W/m2
12:44 88.9 °F 38.5 °F 30.17 in NNE 2.9 mph 4.0 mph 17% 0.00 in 1074.0 W/m2
12:47 88.9 °F 39.9 °F 30.17 in East 0.9 mph 3.0 mph 18% 0.00 in 1076.0 W/m2
12:48 88.9 °F 38.5 °F 30.17 in Calm   4.0 mph 17% 0.00 in 1076.0 W/m2
12:49 88.9 °F 38.5 °F 30.17 in NNE 4.9 mph 7.0 mph 17% 0.00 in 1071.0 W/m2
12:50 88.9 °F 36.9 °F 30.17 in North 2.0 mph 7.0 mph 16% 0.00 in 1078.0 W/m2
12:51 89.1 °F 37.0 °F 30.17 in ESE 4.0 mph 8.0 mph 16% 0.00 in 1076.0 W/m2
12:52 89.2 °F 38.7 °F 30.17 in NNE 0.9 mph 7.0 mph 17% 0.00 in 1072.0 W/m2
12:55 89.1 °F 38.7 °F 30.17 in NNE 4.9 mph 7.0 mph 17% 0.00 in 1072.0 W/m2
12:58 90.0 °F 37.8 °F 30.17 in SE 0.9 mph 8.0 mph 16% 0.00 in 1065.0 W/m2
12:59 90.0 °F 37.8 °F 30.17 in SSE 4.0 mph 4.0 mph 16% 0.00 in 1067.0 W/m2
13:00 89.8 °F 39.2 °F 29.70 in SE 2.9 mph 7.0 mph 17% 0.00 in 1067.0 W/m2
13:01 90.1 °F 37.9 °F 30.17 in SSE 2.0 mph 4.0 mph 16% 0.00 in 1071.0 W/m2
13:02 90.1 °F 37.9 °F 30.17 in SSW 4.9 mph 6.0 mph 16% 0.00 in 1067.0 W/m2
13:06 90.0 °F 37.8 °F 30.17 in SSW 2.9 mph 5.0 mph 16% 0.00 in 1072.0 W/m2
13:10 89.8 °F 37.6 °F 30.16 in West 8.1 mph 8.1 mph 16% 0.00 in 1069.0 W/m2
13:11 89.8 °F 37.6 °F 30.16 in West 2.0 mph 8.0 mph 16% 0.00 in 1071.0 W/m2
13:13 89.8 °F 37.6 °F 30.16 in WNW 2.0 mph 6.0 mph 16% 0.00 in 1065.0 W/m2
13:14 89.8 °F 37.6 °F 30.16 in Calm   3.0 mph 16% 0.00 in 1062.0 W/m2
13:17 89.8 °F 37.6 °F 30.16 in NW 0.9 mph 4.0 mph 16% 0.00 in 1056.0 W/m2
13:19 89.8 °F 39.2 °F 30.16 in ESE 8.1 mph 10.0 mph 17% 0.00 in 1053.0 W/m2
13:23 90.1 °F 37.9 °F 30.16 in SE 4.9 mph 10.0 mph 16% 0.00 in 1053.0 W/m2
13:24 90.1 °F 37.9 °F 30.16 in East 0.9 mph 7.0 mph 16% 0.00 in 1058.0 W/m2
13:25 90.3 °F 38.1 °F 29.69 in NNE 2.9 mph 7.0 mph 16% 0.00 in 1060.0 W/m2
13:26 90.3 °F 36.3 °F 30.15 in NE 4.9 mph 8.0 mph 15% 0.00 in 1055.0 W/m2
13:28 90.3 °F 36.3 °F 30.16 in East 2.9 mph 7.0 mph 15% 0.00 in 1055.0 W/m2
13:33 90.7 °F 36.7 °F 30.15 in SW 0.9 mph 4.0 mph 15% 0.00 in 1056.0 W/m2
13:35 90.7 °F 38.3 °F 30.15 in ESE 4.0 mph 7.0 mph 16% 0.00 in 1062.0 W/m2
13:39 91.0 °F 37.0 °F 30.15 in SSW 2.0 mph 5.0 mph 15% 0.00 in 1058.0 W/m2
13:40 91.0 °F 37.0 °F 30.15 in ENE 0.9 mph 4.0 mph 15% 0.00 in 1055.0 W/m2
13:41 91.0 °F 37.0 °F 30.15 in SSE 2.0 mph 5.0 mph 15% 0.00 in 1051.0 W/m2
13:42 91.2 °F 37.0 °F 30.15 in ESE 2.0 mph 5.0 mph 15% 0.00 in 1049.0 W/m2
13:43 91.2 °F 37.0 °F 30.15 in ESE 0.9 mph 3.0 mph 15% 0.00 in 1049.0 W/m2
13:44 91.4 °F 37.2 °F 30.15 in SE 0.9 mph 3.0 mph 15% 0.00 in 1046.0 W/m2
13:46 91.6 °F 35.6 °F 30.15 in ESE 0.9 mph 1.0 mph 14% 0.00 in 1042.0 W/m2
13:48 91.8 °F 35.8 °F 29.68 in Calm   1.0 mph 14% 0.00 in 1046.0 W/m2
13:55 92.5 °F 36.3 °F 30.14 in NNW 2.0 mph 5.0 mph 14% 0.00 in 1079.0 W/m2
13:56 92.7 °F 36.5 °F 29.67 in Calm   4.0 mph 14% 0.00 in 1078.0 W/m2
13:59 93.0 °F 36.9 °F 30.14 in East 2.9 mph 3.0 mph 14% 0.00 in 1092.0 W/m2
14:02 93.0 °F 36.9 °F 30.14 in Calm   5.0 mph 14% 0.00 in 1107.0 W/m2
14:06 92.7 °F 36.5 °F 30.14 in NW 4.0 mph 5.0 mph 14% 0.00 in 1056.0 W/m2
14:09 92.8 °F 36.7 °F 30.14 in West 0.9 mph 6.0 mph 14% 0.00 in 1042.0 W/m2
14:10 92.8 °F 36.7 °F 30.14 in NW 10.1 mph 10.1 mph 14% 0.00 in 963.0 W/m2
14:15 92.7 °F 34.7 °F 30.14 in Calm   5.0 mph 13% 0.00 in 1037.0 W/m2
14:17 92.7 °F 36.5 °F 30.13 in NE 2.9 mph 5.0 mph 14% 0.00 in 1037.0 W/m2
14:18 92.7 °F 36.5 °F 30.13 in NE 4.0 mph 11.0 mph 14% 0.00 in 1042.0 W/m2
14:24 93.0 °F 36.9 °F 30.13 in Calm   6.0 mph 14% 0.00 in 1037.0 W/m2
14:27 92.8 °F 36.7 °F 30.13 in ESE 2.9 mph 5.0 mph 14% 0.00 in 1037.0 W/m2
14:30 93.7 °F 33.4 °F 30.13 in Calm   2.0 mph 12% 0.00 in 1014.0 W/m2
14:31 93.7 °F 35.4 °F 30.12 in East 0.9 mph 2.0 mph 13% 0.00 in 1011.0 W/m2
14:32 93.6 °F 35.4 °F 30.13 in ENE 0.9 mph 5.0 mph 13% 0.00 in 1028.0 W/m2
14:34 93.9 °F 35.6 °F 30.12 in NNE 2.9 mph 5.0 mph 13% 0.00 in 1005.0 W/m2
14:38 93.9 °F 35.6 °F 30.12 in NE 2.0 mph 4.0 mph 13% 0.00 in 1002.0 W/m2
14:40 94.3 °F 36.0 °F 30.12 in Calm   5.0 mph 13% 0.00 in 1005.0 W/m2
14:42 94.5 °F 36.0 °F 30.12 in SE 2.0 mph 4.0 mph 13% 0.00 in 995.0 W/m2
14:43 94.5 °F 37.9 °F 30.12 in SE 0.9 mph 4.0 mph 14% 0.00 in 995.0 W/m2
14:45 94.8 °F 36.3 °F 29.65 in SE 4.9 mph 6.0 mph 13% 0.00 in 993.0 W/m2
14:46 95.0 °F 36.5 °F 30.12 in NNE 2.0 mph 6.0 mph 13% 0.00 in 986.0 W/m2
14:47 95.2 °F 34.5 °F 29.65 in ESE 0.9 mph 5.0 mph 12% 0.00 in 983.0 W/m2
14:48 95.4 °F 36.7 °F 30.12 in NNE 2.9 mph 4.0 mph 13% 0.00 in 976.0 W/m2
14:52 95.7 °F 37.0 °F 30.12 in NNE 4.0 mph 4.0 mph 13% 0.00 in 976.0 W/m2
14:53 95.7 °F 35.1 °F 30.12 in NNE 4.0 mph 6.0 mph 12% 0.00 in 986.0 W/m2
14:55 95.7 °F 35.1 °F 30.12 in ENE 0.9 mph 5.0 mph 12% 0.00 in 969.0 W/m2
15:02 95.5 °F 36.9 °F 30.12 in Calm   2.0 mph 13% 0.00 in 954.0 W/m2
15:05 95.7 °F 35.1 °F 30.12 in NNW 4.0 mph 5.0 mph 12% 0.00 in 949.0 W/m2
15:08 95.5 °F 32.7 °F 30.11 in Calm   8.0 mph 11% 0.00 in 942.0 W/m2
15:10 95.5 °F 32.7 °F 30.11 in Calm   2.0 mph 11% 0.00 in 937.0 W/m2
15:12 95.5 °F 32.7 °F 30.11 in NNW 2.0 mph 6.0 mph 11% 0.00 in 932.0 W/m2
15:13 95.5 °F 32.7 °F 29.64 in North 2.0 mph 6.0 mph 11% 0.00 in 933.0 W/m2
15:14 95.4 °F 32.5 °F 30.11 in Calm   4.0 mph 11% 0.00 in 926.0 W/m2
15:16 95.4 °F 32.5 °F 30.11 in ENE 4.0 mph 7.0 mph 11% 0.00 in 921.0 W/m2
15:19 95.4 °F 34.7 °F 30.10 in South 6.0 mph 6.0 mph 12% 0.00 in 918.0 W/m2
15:25 94.3 °F 33.8 °F 30.11 in WSW 6.9 mph 9.0 mph 12% 0.00 in 904.0 W/m2
15:30 93.6 °F 33.3 °F 30.10 in WSW 2.0 mph 9.0 mph 12% 0.00 in 907.0 W/m2
15:32 93.6 °F 33.3 °F 30.10 in South 0.9 mph 8.0 mph 12% 0.00 in 907.0 W/m2
15:33 93.7 °F 35.4 °F 30.10 in South 0.9 mph 9.0 mph 13% 0.00 in 905.0 W/m2
15:36 93.4 °F 33.3 °F 30.10 in Calm   3.0 mph 12% 0.00 in 912.0 W/m2
15:37 93.6 °F 33.3 °F 30.10 in Calm   3.0 mph 12% 0.00 in 909.0 W/m2
15:38 93.6 °F 33.3 °F 30.10 in WSW 2.0 mph 8.0 mph 12% 0.00 in 914.0 W/m2
15:40 93.7 °F 33.4 °F 30.10 in SW 4.0 mph 5.0 mph 12% 0.00 in 886.0 W/m2
15:48 94.5 °F 31.8 °F 30.09 in SW 4.0 mph 10.0 mph 11% 0.00 in 872.0 W/m2
15:51 94.6 °F 32.0 °F 30.09 in West 6.0 mph 14.0 mph 11% 0.00 in 856.0 W/m2
15:52 94.5 °F 31.8 °F 30.10 in WSW 6.9 mph 10.0 mph 11% 0.00 in 851.0 W/m2
15:54 94.5 °F 31.8 °F 29.63 in WSW 4.0 mph 9.0 mph 11% 0.00 in 849.0 W/m2
15:55 94.3 °F 31.6 °F 30.10 in WNW 4.0 mph 8.0 mph 11% 0.00 in 849.0 W/m2
15:59 93.7 °F 31.3 °F 29.62 in SW 4.0 mph 6.0 mph 11% 0.00 in 837.0 W/m2
16:03 93.7 °F 31.3 °F 30.09 in Calm   4.0 mph 11% 0.00 in 831.0 W/m2
16:08 94.5 °F 31.8 °F 30.09 in South 2.0 mph 3.0 mph 11% 0.00 in 823.0 W/m2
16:12 94.6 °F 32.0 °F 30.09 in WSW 4.0 mph 9.0 mph 11% 0.00 in 819.0 W/m2
16:15 94.5 °F 34.0 °F 29.62 in SSW 6.0 mph 7.0 mph 12% 0.00 in 812.0 W/m2
16:17 94.5 °F 31.8 °F 30.09 in SSW 4.9 mph 8.0 mph 11% 0.00 in 803.0 W/m2
16:18 94.3 °F 31.6 °F 30.09 in South 2.9 mph 8.0 mph 11% 0.00 in 807.0 W/m2
16:19 94.3 °F 31.6 °F 30.08 in ENE 0.9 mph 8.0 mph 11% 0.00 in 802.0 W/m2
16:20 94.3 °F 33.8 °F 30.08 in South 0.9 mph 5.0 mph 12% 0.00 in 802.0 W/m2
16:21 94.3 °F 33.8 °F 30.09 in SSW 6.9 mph 7.0 mph 12% 0.00 in 796.0 W/m2
16:26 94.6 °F 34.2 °F 30.08 in WSW 2.9 mph 5.0 mph 12% 0.00 in 777.0 W/m2
16:28 94.8 °F 34.3 °F 30.08 in WSW 0.9 mph 2.0 mph 12% 0.00 in 780.0 W/m2
16:29 94.8 °F 32.2 °F 30.08 in West 2.9 mph 3.0 mph 11% 0.00 in 780.0 W/m2
16:33 95.2 °F 32.4 °F 30.08 in WNW 4.9 mph 9.0 mph 11% 0.00 in 777.0 W/m2
16:34 95.2 °F 32.4 °F 30.08 in West 6.0 mph 9.0 mph 11% 0.00 in 777.0 W/m2
16:42 95.0 °F 32.2 °F 30.08 in SE 6.0 mph 7.0 mph 11% 0.00 in 765.0 W/m2
16:44 95.4 °F 32.5 °F 30.08 in East 4.0 mph 5.0 mph 11% 0.00 in 754.0 W/m2
16:45 94.8 °F 32.2 °F 30.08 in SE 2.0 mph 3.0 mph 11% 0.00 in 773.0 W/m2
16:47 95.4 °F 32.5 °F 30.08 in SSE 2.0 mph 8.0 mph 11% 0.00 in 745.0 W/m2
16:48 95.5 °F 32.7 °F 30.08 in NNE 4.9 mph 8.0 mph 11% 0.00 in 744.0 W/m2
16:52 95.7 °F 32.9 °F 30.08 in Calm   5.0 mph 11% 0.00 in 747.0 W/m2
16:54 95.9 °F 32.9 °F 30.08 in SSE 0.9 mph 5.0 mph 11% 0.00 in 325.0 W/m2
16:55 95.9 °F 30.6 °F 30.08 in Calm   4.0 mph 10% 0.00 in 325.0 W/m2
16:57 95.7 °F 32.9 °F 30.08 in Calm   5.0 mph 11% 0.00 in 190.0 W/m2
16:58 95.5 °F 32.7 °F 30.07 in SSE 2.9 mph 4.0 mph 11% 0.00 in 197.0 W/m2
17:00 95.4 °F 32.5 °F 30.08 in South 2.0 mph 6.0 mph 11% 0.00 in 691.0 W/m2
17:01 95.4 °F 32.5 °F 30.07 in ESE 4.0 mph 6.0 mph 11% 0.00 in 677.0 W/m2
17:02 95.4 °F 32.5 °F 30.07 in East 6.0 mph 6.0 mph 11% 0.00 in 668.0 W/m2
17:03 95.4 °F 34.7 °F 30.08 in NE 6.0 mph 7.0 mph 12% 0.00 in 621.0 W/m2
17:04 95.4 °F 32.5 °F 30.08 in NNE 0.9 mph 7.0 mph 11% 0.00 in 652.0 W/m2
17:08 95.5 °F 34.9 °F 29.61 in NNW 2.0 mph 2.0 mph 12% 0.00 in 645.0 W/m2
17:09 95.5 °F 32.7 °F 30.08 in ESE 0.9 mph 5.0 mph 11% 0.00 in 163.0 W/m2
17:10 95.5 °F 32.7 °F 29.60 in NE 2.9 mph 5.0 mph 11% 0.00 in 160.0 W/m2
17:14 95.2 °F 32.4 °F 30.07 in ENE 2.9 mph 8.0 mph 11% 0.00 in 178.0 W/m2
17:16 94.8 °F 32.2 °F 30.07 in ENE 2.9 mph 6.0 mph 11% 0.00 in 592.0 W/m2
17:17 94.8 °F 32.2 °F 30.07 in NE 4.9 mph 10.0 mph 11% 0.00 in 587.0 W/m2
17:20 94.6 °F 34.2 °F 30.07 in ESE 4.9 mph 17.0 mph 12% 0.00 in 534.0 W/m2
17:22 94.5 °F 34.0 °F 30.07 in SSE 4.0 mph 11.0 mph 12% 0.00 in 555.0 W/m2
17:25 94.5 °F 31.8 °F 30.07 in ESE 6.0 mph 7.0 mph 11% 0.00 in 515.0 W/m2
17:26 94.5 °F 31.8 °F 30.07 in East 4.9 mph 9.0 mph 11% 0.00 in 144.0 W/m2
17:35 93.6 °F 33.3 °F 30.07 in SSE 0.9 mph 4.0 mph 12% 0.00 in 105.0 W/m2
17:36 93.6 °F 33.3 °F 30.07 in Calm   4.0 mph 12% 0.00 in 315.0 W/m2
17:39 93.4 °F 33.3 °F 30.07 in SE 0.9 mph 4.0 mph 12% 0.00 in 323.0 W/m2
17:41 93.2 °F 33.1 °F 30.07 in SSE 0.9 mph 3.0 mph 12% 0.00 in 91.0 W/m2
17:46 92.8 °F 32.7 °F 30.07 in Calm   1.0 mph 12% 0.00 in 274.0 W/m2
17:47 92.8 °F 32.7 °F 30.07 in SSW 2.0 mph 3.0 mph 12% 0.00 in 325.0 W/m2
17:49 92.7 °F 32.7 °F 30.07 in Calm   4.0 mph 12% 0.00 in 392.0 W/m2
17:52 92.8 °F 32.7 °F 30.07 in Calm   2.0 mph 12% 0.00 in 343.0 W/m2
17:53 92.8 °F 32.7 °F 30.07 in SW 0.9 mph 4.0 mph 12% 0.00 in 84.0 W/m2
17:58 92.5 °F 32.5 °F 30.07 in Calm   2.0 mph 12% 0.00 in 58.0 W/m2
18:01 92.1 °F 32.2 °F 30.07 in SE 2.9 mph 3.0 mph 12% 0.00 in 54.0 W/m2
18:03 91.9 °F 32.0 °F 30.07 in SE 0.9 mph 4.0 mph 12% 0.00 in 51.0 W/m2
18:04 91.9 °F 32.0 °F 30.07 in SE 2.0 mph 5.0 mph 12% 0.00 in 49.0 W/m2
18:06 91.8 °F 32.0 °F 30.07 in SE 0.9 mph 4.0 mph 12% 0.00 in 47.0 W/m2
18:08 91.6 °F 31.8 °F 30.07 in Calm   1.0 mph 12% 0.00 in 46.0 W/m2
18:10 91.4 °F 31.6 °F 30.07 in Calm   1.0 mph 12% 0.00 in 44.0 W/m2
18:11 91.2 °F 31.5 °F 30.07 in Calm   1.0 mph 12% 0.00 in 40.0 W/m2
18:12 91.2 °F 31.5 °F 30.07 in Calm   2.0 mph 12% 0.00 in 40.0 W/m2
18:14 91.2 °F 31.5 °F 30.07 in SE 2.0 mph 3.0 mph 12% 0.00 in 40.0 W/m2
18:16 91.0 °F 31.5 °F 29.60 in SE 0.9 mph 3.0 mph 12% 0.00 in 40.0 W/m2
18:17 91.0 °F 31.5 °F 30.07 in SE 2.9 mph 3.0 mph 12% 0.00 in 40.0 W/m2
18:20 90.9 °F 31.3 °F 30.07 in Calm   3.0 mph 12% 0.00 in 40.0 W/m2
18:21 90.9 °F 31.3 °F 30.07 in Calm   1.0 mph 12% 0.00 in 39.0 W/m2
18:22 90.7 °F 31.1 °F 30.07 in Calm   1.0 mph 12% 0.00 in 40.0 W/m2
18:32 90.1 °F 32.7 °F 30.07 in Calm     13% 0.00 in 40.0 W/m2
18:35 90.0 °F 32.5 °F 30.07 in Calm     13% 0.00 in 44.0 W/m2
18:37 90.0 °F 32.5 °F 30.08 in Calm     13% 0.00 in 46.0 W/m2
18:38 89.8 °F 32.4 °F 29.60 in Calm     13% 0.00 in 49.0 W/m2
18:40 89.8 °F 30.4 °F 30.07 in Calm     12% 0.00 in 44.0 W/m2
18:41 89.6 °F 32.2 °F 30.07 in Calm     13% 0.00 in 53.0 W/m2
18:45 89.4 °F 32.2 °F 30.07 in SE 0.9 mph 2.0 mph 13% 0.00 in 39.0 W/m2
18:46 89.4 °F 32.2 °F 30.07 in Calm   2.0 mph 13% 0.00 in 37.0 W/m2
18:47 89.2 °F 32.0 °F 30.07 in Calm   2.0 mph 13% 0.00 in 35.0 W/m2
18:48 89.2 °F 32.0 °F 30.07 in Calm   2.0 mph 13% 0.00 in 33.0 W/m2
18:50 89.2 °F 33.8 °F 30.08 in East 0.9 mph 3.0 mph 14% 0.00 in 32.0 W/m2
18:51 89.2 °F 32.0 °F 30.08 in ESE 0.9 mph 3.0 mph 13% 0.00 in 30.0 W/m2
18:53 89.1 °F 31.8 °F 30.08 in Calm   4.0 mph 13% 0.00 in 30.0 W/m2
18:55 89.1 °F 31.8 °F 30.08 in Calm   1.0 mph 13% 0.00 in 28.0 W/m2
18:57 89.2 °F 32.0 °F 30.08 in SE 0.9 mph 4.0 mph 13% 0.00 in 30.0 W/m2
18:58 88.9 °F 33.6 °F 30.08 in Calm   1.0 mph 14% 0.00 in 28.0 W/m2
19:01 88.9 °F 31.6 °F 30.08 in Calm     13% 0.00 in 32.0 W/m2
19:02 88.9 °F 31.6 °F 30.08 in Calm   1.0 mph 13% 0.00 in 30.0 W/m2
19:04 88.9 °F 31.6 °F 30.08 in SE 0.9 mph 4.0 mph 13% 0.00 in 25.0 W/m2
19:05 88.7 °F 31.5 °F 29.61 in Calm   4.0 mph 13% 0.00 in 25.0 W/m2
19:07 88.5 °F 31.5 °F 29.61 in Calm   1.0 mph 13% 0.00 in 25.0 W/m2
19:08 88.5 °F 31.5 °F 30.08 in Calm   1.0 mph 13% 0.00 in 25.0 W/m2
19:10 88.5 °F 33.3 °F 30.08 in SE 0.9 mph 1.0 mph 14% 0.00 in 26.0 W/m2
19:12 88.3 °F 31.3 °F 30.08 in Calm   1.0 mph 13% 0.00 in 26.0 W/m2
19:15 88.3 °F 31.3 °F 30.08 in Calm   1.0 mph 13% 0.00 in 21.0 W/m2
19:16 88.2 °F 31.1 °F 30.08 in Calm   1.0 mph 13% 0.00 in 21.0 W/m2
19:21 88.2 °F 32.9 °F 30.08 in SE 0.9 mph 2.0 mph 14% 0.00 in 21.0 W/m2
19:27 87.6 °F 32.5 °F 30.08 in SE 2.9 mph 3.0 mph 14% 0.00 in 14.0 W/m2
19:28 88.0 °F 32.9 °F 30.08 in SE 0.9 mph 3.0 mph 14% 0.00 in 19.0 W/m2
19:33 87.4 °F 32.4 °F 30.08 in Calm   1.0 mph 14% 0.00 in 7.0 W/m2
19:43 86.7 °F 33.6 °F 30.08 in Calm   2.0 mph 15% 0.00 in 0.0 W/m2
19:48 86.4 °F 31.5 °F 30.08 in Calm   2.0 mph 14% 0.00 in 0.0 W/m2
19:53 86.2 °F 31.5 °F 29.61 in SE 0.9 mph 6.0 mph 14% 0.00 in 0.0 W/m2
19:58 86.0 °F 31.3 °F 30.08 in SE 2.0 mph 5.0 mph 14% 0.00 in 0.0 W/m2
20:03 85.6 °F 32.7 °F 30.08 in SE 2.0 mph 5.0 mph 15% 0.00 in 0.0 W/m2
20:10 85.1 °F 32.2 °F 29.62 in SE 0.9 mph 6.0 mph 15% 0.00 in 0.0 W/m2
20:13 84.9 °F 32.2 °F 30.09 in Calm   2.0 mph 15% 0.00 in 0.0 W/m2
20:23 84.6 °F 31.8 °F 30.09 in Calm   2.0 mph 15% 0.00 in 0.0 W/m2
20:28 84.6 °F 31.8 °F 29.63 in ESE 2.0 mph 2.0 mph 15% 0.00 in 0.0 W/m2
20:30 84.6 °F 31.8 °F 30.10 in Calm   2.0 mph 15% 0.00 in 0.0 W/m2
20:36 84.4 °F 33.3 °F 30.10 in Calm     16% 0.00 in 0.0 W/m2
20:38 84.2 °F 31.5 °F 30.10 in Calm     15% 0.00 in 0.0 W/m2
Olympia, Windhoek, Namibia
Compliments of Weather Underground - 4.5 mb